Location: Bazinghen
(50.8246°N, 1.6616°E)
Time: 15:56:13
(UTC+00:00)

Cosmos 1814 Rocket - Pass Details

Date: 09 April 2020
Orbit: 744 x 787 km, 74.1° (Epoch: 28 May)

Event Time Altitude Azimuth Distance (km) Brightness Sun altitude
Rises 21:37:35 0° 333° (NNW) 3,290 8.6 -24.1°
Reaches altitude 10° 21:40:00 10° 330° (NNW) 2,359 7.6 -24.4°
Maximum altitude 21:45:18 63° 251° (WSW) 879 4.3 -24.9°
Enters shadow 21:46:11 54° 207° (SSW) 950 4.2 -24.9°
